KUIPER-00276

导读

KUIPER-00276是亚马逊柯伊伯(Kuiper)低轨宽带星座中的一颗卫星,于2026年2月12日由欧洲阿丽亚娜64型火箭在法属圭亚那库鲁航天中心发射,发射归属法国相关航天任务。 该卫星属于亚马逊打造的全球低轨卫星互联网星座,项目规划部署超过3000颗卫星,旨在提供全球范围的高速宽带互联服务,此次发射是阿丽亚娜6号火箭首次商业发射,也是柯伊伯星座单次发射卫星数量最多的任务之一。

基本信息
目录编号:
67794
目录名称:
KUIPER-00276
国际标识:
2026-030AG
轨道中心:
EARTH
卫星名称:
KUIPER-00276
卫星全名:
KUIPER-00276
卫星状态:
在轨 (已飞行212 天)
发射日期:
2026-02-12 UTC
国别 :
美国 (US)
星等 :
--
该卫星已列入 空间交会检测服务 Space Conjunction Data Service (SCDS) ,当前飞行风险评估等级: 无高风险
轨道信息
数据来源 国际轨道数据 AOE轨道数据
星历时间 2026-09-12T00:33:14+0800
10小时前
查看轨道信息
2026-09-10T18:00:00+0800
1天前
查看轨道信息
半长轴 7007.694km 7007.712km
偏心率 0.000107 0.0001231
轨道倾角 51.898° 51.896°
近地点辐角 80.232° 58.270°
升交点赤经 85.610° 91.241°
平近点角 279.876° 355.087°
近地点 628.807km 628.712km
远地点 630.307km 630.438km
周期 97.302分钟 97.303分钟
每日圈数 14.799263 14.799207
详细信息
使用方式:
暂无
2D轨道图
3D轨道图
轨道高度分析图
轨道倾角分析图
轨道综合分析图
查看轨道综合分析图
与全量物体交会距离演化趋势
与全量物体交会风险概率演化趋势